Theta_e
319 320 319 320 322 320 321 323 320 322 322 322 322 324 324 323 326 326 327 329 333 335 334 337 337 334 336 337 342 343 343 340 340 341 338 337 337 336 336 335 333 333 332
318 318 317 316 317 316 317 319 320 320 321 320 322 325 324 319 319 326 329 328 330 332 331 337 337 336 335 339 341 343 343 342 339 336 337 336 336 335 334 333 333 332 331
314 314 315 315 315 316 318 319 317 317 318 318 319 321 322 323 322 323 321 319 322 330 335 341 343 343 343 343 344 345 344 343 338 336 334 334 334 333 332 333 332 331 330
316 316 315 316 317 317 316 315 314 314 313 313 313 313 313 315 325 325 320 319 322 329 330 334 337 342 346 346 347 346 345 341 337 336 334 333 333 333 333 331 330 330 329
314 314 315 315 314 314 314 313 313 312 312 312 311 311 311 311 313 319 321 320 324 328 329 331 335 336 340 344 346 346 344 339 337 334 331 329 330 331 331 331 330 329 328
313 314 314 314 314 313 313 312 312 312 311 311 310 310 309 310 311 313 317 320 323 324 323 325 330 335 335 340 345 346 343 341 337 334 330 329 329 331 331 330 329 327 325
311 311 312 313 312 312 312 312 311 311 311 310 310 310 310 312 314 318 320 319 321 318 320 324 329 333 336 340 343 343 342 342 341 340 334 332 332 333 332 329 328 327 326
309 310 311 311 312 312 312 311 311 311 311 310 310 310 311 312 315 321 322 319 319 324 326 330 331 333 336 340 342 340 339 338 338 337 336 335 334 333 333 332 330 328 327
307 309 311 311 311 311 311 311 311 311 311 311 310 311 312 312 315 318 318 321 326 328 329 330 331 335 337 340 339 336 336 335 336 335 334 333 333 331 331 330 328 326 326
305 306 308 310 311 311 311 311 311 311 311 310 310 311 312 312 313 323 324 325 325 323 323 327 332 334 337 338 337 337 334 333 333 332 332 331 331 330 330 330 329 326 326
305 305 306 308 310 310 310 310 310 310 309 310 310 310 310 312 312 316 320 319 317 317 322 326 331 335 337 335 334 333 335 333 332 331 330 329 329 329 329 329 328 328 327
305 306 307 308 309 309 309 309 309 309 309 309 309 310 311 311 312 313 320 319 316 319 322 325 330 335 334 335 336 334 333 332 330 329 327 326 327 327 328 328 327 327 327
305 305 306 306 308 309 309 309 309 309 309 309 309 311 312 313 313 319 319 319 317 321 320 329 334 335 331 327 333 334 332 331 329 326 325 326 327 328 328 328 328 328 328
305 305 306 307 308 308 309 309 309 309 309 310 310 311 312 313 313 313 318 319 318 320 324 330 333 331 333 334 332 331 332 331 330 327 326 327 327 327 328 328 327 327 327
305 306 307 308 308 308 309 309 310 310 310 311 312 314 315 316 316 314 318 319 321 322 326 324 324 330 328 328 327 330 330 330 328 327 327 327 326 326 325 325 325 326 325
305 305 306 307 308 309 310 310 310 312 312 312 313 313 315 317 318 318 320 325 326 325 324 326 327 327 325 324 326 327 328 327 327 327 327 328 327 327 326 326 326 326 325
304 305 307 308 309 309 310 310 310 311 313 314 315 315 316 317 319 320 319 319 325 325 327 326 326 325 323 323 324 325 326 327 327 327 327 328 327 327 326 326 326 325 325
304 305 307 308 308 309 311 311 311 311 311 310 312 315 317 319 319 318 316 320 319 323 326 326 325 323 323 324 325 326 327 327 326 326 327 326 326 326 326 325 325 325 324
305 306 307 307 309 310 311 311 311 312 313 313 314 315 316 316 316 316 320 321 323 325 324 323 323 323 323 324 325 326 326 327 327 326 326 326 326 325 324 325 325 324 324
305 306 307 308 309 312 313 313 313 314 315 316 315 315 314 313 311 313 318 326 325 324 323 323 324 324 324 324 325 326 326 327 327 327 326 326 325 325 324 324 324 323 323
305 307 308 310 310 313 315 316 315 316 318 318 318 313 312 315 317 322 325 326 325 324 324 324 324 325 326 327 326 326 327 326 326 326 326 325 325 324 324 324 324 323 323
308 309 309 310 315 315 317 320 321 321 321 317 315 316 322 324 325 325 325 325 326 325 325 325 325 327 327 326 326 326 326 325 325 326 325 325 325 325 325 325 324 324 323
312 313 316 312 314 319 320 322 322 321 320 320 320 321 325 325 324 324 325 326 326 326 326 326 326 326 326 326 326 325 324 324 324 325 325 325 324 324 324 323 322 319 316
322 322 324 324 324 323 322 322 322 322 322 322 323 324 323 322 322 323 326 326 326 326 326 326 326 326 325 325 325 324 324 325 325 325 325 325 323 323 320 317 316 311 307
323 324 324 323 322 322 322 322 322 320 319 319 317 316 318 318 321 322 323 325 326 326 326 326 325 325 325 325 324 323 323 324 324 324 324 323 319 316 313 308 305 301 297
320 320 320 320 319 318 318 318 316 315 314 312 312 313 314 313 315 317 319 322 322 323 323 323 324 324 325 325 325 325 324 324 324 323 320 317 312 306 302 299 297 296 294
Wind_Speed
26 24 22 20 20 15 12 12 10 10 10 11 11 11 11 11 12 13 17 21 25 29 26 31 30 32 29 27 23 24 18 19 11 17 12 11 9 10 10 8 8 9 10
28 27 24 20 20 18 15 15 12 13 13 14 14 16 14 13 14 16 17 22 23 26 28 27 27 29 34 37 31 28 24 27 20 13 12 11 10 12 9 9 8 9 11
24 27 26 24 22 21 20 17 13 10 8 7 8 10 15 18 17 16 18 23 24 26 26 28 27 25 27 29 27 27 25 25 22 16 10 9 12 13 11 9 10 9 10
27 24 26 26 25 22 19 17 14 10 10 10 12 15 18 18 20 20 20 23 25 26 28 31 29 29 28 29 28 28 27 23 24 21 10 9 10 11 14 14 10 10 9
14 17 19 20 20 20 19 16 14 12 13 15 18 21 25 27 26 24 24 22 23 26 28 30 32 34 34 33 29 27 27 21 19 18 9 7 8 8 16 13 12 9 7
17 18 20 23 23 22 21 19 17 16 17 20 22 25 30 32 31 33 31 23 24 26 31 33 32 34 35 34 35 30 29 24 23 20 13 8 15 15 14 16 11 5 2
19 26 30 31 33 33 29 25 21 21 22 23 24 26 30 32 32 33 30 24 24 29 32 34 35 33 33 34 33 29 29 25 21 21 22 22 14 18 17 16 16 11 8
26 25 29 31 34 36 32 28 26 25 25 24 26 29 31 31 30 29 31 24 26 28 29 30 34 35 32 32 31 27 26 23 19 17 17 13 12 11 18 18 19 15 8
31 29 26 26 28 31 32 32 30 29 28 28 30 31 32 34 28 27 28 22 20 21 23 28 30 30 30 27 24 17 12 16 15 12 10 9 10 11 12 14 14 13 4
32 32 32 31 34 32 35 33 35 33 31 31 31 31 30 33 31 24 20 16 15 19 24 26 27 27 23 18 13 12 16 15 14 13 10 8 9 9 9 13 15 14 5
35 33 37 37 37 37 34 37 33 31 28 27 29 32 33 33 31 27 22 17 17 21 23 26 28 22 16 17 15 7 21 18 15 12 11 9 8 9 11 12 11 13 11
34 33 29 29 32 30 29 28 27 24 25 27 28 30 32 32 30 29 26 21 21 21 25 27 29 22 22 19 16 13 21 18 18 15 11 10 10 10 10 11 9 9 10
34 32 32 33 29 30 28 24 21 23 24 21 19 19 21 25 27 24 25 23 22 23 26 25 27 25 23 18 22 24 20 20 19 15 12 10 8 7 10 9 7 7 6
30 29 27 27 25 24 21 21 21 21 21 20 18 18 20 24 29 31 25 22 22 21 23 24 23 21 22 21 20 22 21 20 20 16 14 11 9 11 11 10 8 9 6
25 25 26 25 25 22 23 25 24 27 27 24 23 21 19 20 26 29 21 20 18 19 18 19 23 26 19 19 19 19 19 19 17 17 17 15 11 11 10 11 9 9 4
23 23 21 20 20 21 20 20 28 27 28 31 30 28 27 28 25 20 16 17 17 21 22 19 18 21 20 18 19 21 19 19 19 19 19 17 16 14 12 11 9 7 6
22 20 20 21 20 20 18 16 12 23 29 29 26 26 30 29 24 22 20 18 20 28 18 20 23 22 20 21 20 20 22 21 18 17 19 18 15 14 12 11 9 6 4
22 22 18 17 17 18 18 19 18 13 11 15 29 30 31 30 27 29 23 17 26 33 19 21 22 23 24 26 27 26 22 18 16 16 18 16 15 13 13 9 8 7 6
14 17 19 19 19 18 18 18 18 17 15 16 17 21 29 32 31 26 18 23 25 21 22 19 23 27 28 29 28 23 21 21 17 16 18 17 14 13 12 11 11 7 7
17 18 19 14 12 15 17 16 14 14 15 14 13 14 14 14 15 17 22 21 20 20 23 27 29 31 31 29 24 22 21 18 17 17 17 16 15 13 12 11 10 8 5
12 12 16 16 16 15 15 14 14 14 14 12 10 13 16 19 22 25 20 21 21 21 25 29 31 32 28 25 23 23 21 19 18 17 18 16 15 13 12 10 10 8 8
16 15 17 17 12 16 15 15 16 15 12 12 12 19 22 20 20 22 22 26 26 28 31 31 31 28 25 24 23 23 21 19 16 16 17 15 15 15 14 13 11 10 8
21 20 17 21 21 18 17 16 15 16 17 16 20 17 21 21 19 21 23 25 25 26 28 29 26 24 23 21 21 19 18 17 16 18 19 18 16 16 15 15 15 16 18
17 10 13 17 17 18 17 17 18 20 18 13 16 17 20 24 25 26 26 24 25 28 26 25 23 24 22 20 18 16 14 17 18 18 19 19 17 17 18 18 18 18 20
19 18 18 17 18 18 21 19 19 21 23 25 21 24 29 29 31 29 27 27 29 28 27 26 25 23 20 18 17 18 18 18 18 18 18 20 22 22 24 24 24 24 24
20 20 19 17 18 18 18 21 22 23 22 22 25 28 29 29 29 29 29 30 31 31 30 28 26 23 20 19 19 21 21 20 20 21 24 26 27 28 27 28 27 26 23
Wind_Direction
212 208 215 220 226 236 240 243 254 263 271 268 270 274 281 292 297 290 290 293 290 283 288 287 281 273 252 254 248 263 260 229 240 269 261 252 242 240 232 213 213 235 259
210 211 213 214 223 228 232 247 258 266 269 275 279 278 274 282 297 296 304 301 295 297 297 283 263 263 268 271 272 276 262 253 229 243 241 229 218 216 204 208 227 249 269
250 234 220 221 224 235 236 226 218 229 234 246 268 278 285 282 282 286 292 302 304 298 289 279 274 270 275 278 274 258 256 267 251 224 221 210 214 201 203 226 237 248 267
235 254 249 235 230 216 212 219 227 240 261 278 285 294 297 294 287 279 288 294 299 294 295 286 284 281 273 268 262 256 263 255 227 220 212 196 195 199 210 217 222 238 258
232 224 237 236 221 214 219 226 237 253 274 288 295 298 297 293 288 281 277 285 289 291 297 294 287 285 281 271 259 256 259 235 214 202 195 190 184 176 202 214 224 234 244
236 229 220 221 228 232 235 238 248 266 277 288 295 298 300 294 282 275 270 273 282 290 294 293 291 286 288 285 277 269 268 243 204 196 196 196 204 204 206 207 194 182 227
279 264 243 236 235 234 237 243 247 256 265 276 283 287 291 286 289 276 257 268 276 287 292 292 290 289 288 286 284 265 256 245 235 224 209 217 214 221 208 204 200 194 202
280 268 253 241 239 240 237 238 243 249 258 266 274 277 280 284 285 274 265 267 276 285 288 286 286 290 289 283 272 256 235 214 211 217 228 238 237 233 225 229 216 209 214
261 260 254 243 237 233 236 240 244 245 250 258 266 269 269 275 277 271 266 267 278 292 291 291 288 288 287 275 246 205 184 201 205 209 216 212 213 219 222 215 198 182 191
255 255 253 243 237 231 232 234 241 244 250 259 257 262 266 272 272 267 255 266 279 297 303 300 290 287 273 241 198 194 192 194 184 175 175 187 201 204 207 215 203 175 154
252 256 245 240 232 229 226 228 232 239 242 243 248 255 262 258 263 266 263 266 278 288 296 294 291 279 212 193 200 199 242 205 181 182 176 180 186 191 192 193 202 206 194
242 242 250 238 225 224 220 226 233 233 241 244 245 248 254 260 260 259 258 264 275 279 285 286 281 259 206 201 202 216 206 188 176 171 167 177 191 191 185 192 206 221 218
234 234 235 237 238 221 223 219 226 231 229 226 230 242 245 252 257 250 257 265 270 275 280 277 266 241 194 197 213 199 182 176 172 168 175 185 186 181 166 159 162 165 182
224 223 226 225 217 211 215 223 221 218 220 222 226 234 238 239 247 247 254 267 270 270 267 257 250 209 193 187 195 184 178 182 181 178 172 162 153 154 154 166 166 178 183
220 214 215 212 212 219 224 220 215 223 223 222 221 223 224 230 229 237 249 264 267 254 229 198 162 160 171 165 176 169 174 177 176 170 166 159 155 157 163 169 175 171 167
208 208 213 217 207 210 213 214 220 226 225 229 236 232 235 239 247 247 247 259 271 221 182 172 150 156 158 170 162 160 169 175 176 174 168 165 170 174 170 169 167 179 183
201 198 201 198 198 196 201 203 210 230 233 234 238 241 241 246 236 241 251 268 245 200 180 170 156 162 167 171 160 161 172 177 174 173 169 170 177 178 169 166 166 160 159
196 193 188 179 193 201 203 201 204 201 215 240 238 235 233 234 241 250 261 265 194 181 179 168 161 164 169 170 171 172 171 169 173 171 172 178 177 169 174 167 169 172 171
171 181 191 199 200 196 200 203 210 213 216 223 225 231 236 239 246 252 241 188 180 173 163 164 161 167 174 174 175 169 170 178 172 171 180 184 176 169 171 174 175 177 168
192 192 193 198 200 197 199 198 200 205 210 219 225 228 229 208 184 192 185 172 163 158 161 160 167 172 172 169 163 170 174 172 175 180 179 177 175 176 165 154 154 153 143
202 202 200 198 202 212 202 195 204 206 209 213 196 196 195 167 152 167 148 156 156 157 162 165 169 166 161 161 169 168 169 170 174 182 172 172 172 165 162 154 145 142 146
204 202 203 211 201 198 207 195 189 182 160 143 148 159 148 136 140 146 146 158 172 171 169 166 160 158 162 166 165 163 164 166 170 170 164 153 146 142 141 139 135 129 121
216 215 191 202 209 211 198 175 160 142 141 153 140 143 135 132 129 135 143 152 154 157 159 158 157 161 164 166 167 168 170 173 174 172 156 148 144 142 141 133 126 118 111
107 110 107 102 122 121 124 126 135 138 145 140 131 125 122 118 126 134 139 147 155 154 155 158 161 158 159 159 160 164 166 153 152 154 154 150 144 141 133 126 125 118 113
84 90 97 97 97 107 118 117 106 99 96 101 108 108 112 124 130 133 137 139 142 144 145 146 147 149 151 151 156 160 160 158 155 155 153 145 135 133 130 126 123 120 119
73 77 80 81 86 90 97 96 96 101 103 104 107 117 125 126 130 134 136 138 137 137 138 137 137 138 142 148 153 150 149 148 145 145 142 138 134 130 128 124 122 117 112